Hettinger, ND

7:57 PM MDT on August 23, 2017 (GMT -0600)
Hettinger Municipal

Weather History for KHEI - September, 2012

Change the Weather History Date:

Tuesday, September 4, 2012

  Actual Average Record
Temperature  
Mean Temperature 63 °F -  
Max Temperature 88 °F 78 °F 100 °F (1998)
Min Temperature 37 °F 46 °F 32 °F (2011)
Degree Days  
Heating Degree Days 2 5  
Month to date heating degree days 2 18  
Since 1 July heating degree days 57 108  
Cooling Degree Days 0 2  
Month to date cooling degree days 21 8  
Year to date cooling degree days 569 357  
Growing Degree Days 12 (Base 50)    
Moisture  
Dew Point 31 °F    
Average Humidity 39    
Maximum Humidity 70    
Minimum Humidity 11    
Precipitation  
Precipitation 0.00 in 0.06 in 0.13 in (1999)
Month to date precipitation 0.02 0.24  
Year to date precipitation 13.78 12.53  
Sea Level Pressure  
Sea Level Pressure 29.90 in    
Wind  
Wind Speed 8 mph (NNW)    
Max Wind Speed 26 mph    
Max Gust Speed 33 mph    
Visibility 10 miles    
Events      
T = Trace of Precipitation, MM = Missing Value Source: NWS Daily Summary

Daily Weather History Graph

Daily Weather History Graph

Search for Another Location

Airport or City:

Trip Planner

Search our weather history database for the weather conditions in past years. The results will help you decide how hot, cold, wet, or windy it might be!

Date:

Astronomy

Sep. 04, 2012 Rise Set
Actual Time 6:15 AM MDT 7:22 PM MDT
Civil Twilight 5:45 AM MDT 7:52 PM MDT
Nautical Twilight 5:08 AM MDT 8:29 PM MDT
Astronomical Twilight 4:29 AM MDT 9:08 PM MDT
Moon 8:58 PM MDT (9/4) 10:42 AM MDT (9/4)
Length of Visible Light 14h 07m
Length of Day
13h 06m
Waning Gibbous, 83% of the Moon is Illuminated
Sep 4
Waning Gibbous
Sep 8
Last Quarter
Sep 15
New
Sep 22
First Quarter
Sep 29
Full

Hourly Weather History & Observations

Time (MDT) Temp. Dew Point Humidity Pressure Visibility Wind Dir Wind Speed Gust Speed Precip Events Conditions
12:53 AM 46.0 °F 30.0 °F 54% 29.90 in 10.0 mi North - - N/A   Clear
1:53 AM 39.9 °F 30.0 °F 68% 29.90 in 10.0 mi North - - N/A   Clear
2:53 AM 43.0 °F 30.0 °F 60% 29.89 in 10.0 mi North - - N/A   Clear
3:53 AM 46.0 °F 28.9 °F 51% 29.90 in 10.0 mi North - - N/A   Clear
4:53 AM 43.0 °F 30.0 °F 60% 29.90 in 10.0 mi North - - N/A   Clear
5:53 AM 39.9 °F 30.0 °F 68% 29.91 in 10.0 mi Calm Calm - N/A   Clear
6:53 AM 39.9 °F 30.9 °F 70% 29.92 in 10.0 mi Calm Calm - N/A   Clear
7:53 AM 48.0 °F 34.0 °F 58% 29.93 in 10.0 mi Calm Calm - N/A   Clear
8:53 AM 63.0 °F 32.0 °F 31% 29.90 in 10.0 mi Calm Calm - N/A   Clear
9:53 AM 75.0 °F 30.9 °F 20% 29.88 in 10.0 mi Calm Calm - N/A   Clear
10:53 AM 80.1 °F 26.1 °F 14% 29.86 in 10.0 mi SE 3.5 mph - N/A   Clear
11:53 AM 84.9 °F 26.1 °F 12% 29.83 in 10.0 mi SSE 9.2 mph - N/A   Clear
12:53 PM 84.9 °F 26.1 °F 12% 29.82 in 10.0 mi Variable 4.6 mph - N/A   Clear
1:53 PM 86.0 °F 26.1 °F 11% 29.81 in 10.0 mi Calm Calm - N/A   Clear
2:53 PM 84.9 °F 27.0 °F 12% 29.81 in 10.0 mi NW 10.4 mph - N/A   Clear
4:53 PM 81.0 °F 30.0 °F 16% 29.84 in 10.0 mi North 19.6 mph 25.3 mph N/A   Clear
5:53 PM 77.0 °F 30.9 °F 19% 29.89 in 10.0 mi NNW 23.0 mph 33.4 mph N/A   Clear
6:53 PM 73.9 °F 32.0 °F 21% 29.92 in 10.0 mi NNW 13.8 mph 24.2 mph N/A   Clear
7:53 PM 66.9 °F 35.1 °F 31% 29.95 in 10.0 mi NNW 11.5 mph - N/A   Clear
9:53 PM 55.0 °F 36.0 °F 49% 29.99 in 10.0 mi NW 8.1 mph - N/A   Clear
10:53 PM 57.0 °F 39.0 °F 51% 30.00 in 10.0 mi NW 16.1 mph 24.2 mph N/A   Partly Cloudy
11:53 PM 50.0 °F 39.0 °F 66% 30.03 in 10.0 mi NW 12.7 mph - N/A   Clear